Year,Month,Day,Hour,Minute,Value (Times are PST for barometer in hPa)
2015,12,10,00,00,996.28
2015,12,10,00,01,996.21
2015,12,10,00,02,996.21
2015,12,10,00,03,996.17
2015,12,10,00,04,996.14
2015,12,10,00,05,996.07
2015,12,10,00,06,996.04
2015,12,10,00,07,995.97
2015,12,10,00,08,995.97
2015,12,10,00,09,995.94
2015,12,10,00,10,995.84
2015,12,10,00,11,995.79
2015,12,10,00,12,995.70
2015,12,10,00,13,995.70
2015,12,10,00,14,995.70
2015,12,10,00,15,995.72
2015,12,10,00,16,995.63
2015,12,10,00,17,995.61
2015,12,10,00,18,995.77
2015,12,10,00,19,995.67
2015,12,10,00,20,995.60
2015,12,10,00,21,995.53
2015,12,10,00,22,995.43
2015,12,10,00,23,995.26
2015,12,10,00,24,995.23
2015,12,10,00,25,995.19
2015,12,10,00,26,995.12
2015,12,10,00,27,995.06
2015,12,10,00,28,995.01
2015,12,10,00,29,994.89
2015,12,10,00,30,994.82
2015,12,10,00,31,994.82
2015,12,10,00,32,994.82
2015,12,10,00,33,994.79
2015,12,10,00,34,994.72
2015,12,10,00,35,994.58
2015,12,10,00,36,994.58
2015,12,10,00,37,994.55
2015,12,10,00,38,994.55
2015,12,10,00,39,994.55
2015,12,10,00,40,994.48
2015,12,10,00,41,994.45
2015,12,10,00,42,994.30
2015,12,10,00,43,994.14
2015,12,10,00,44,994.14
2015,12,10,00,45,994.11
2015,12,10,00,46,994.07
2015,12,10,00,47,994.07
2015,12,10,00,48,994.07
2015,12,10,00,49,993.94
2015,12,10,00,50,993.87
2015,12,10,00,51,993.80
2015,12,10,00,52,993.74
2015,12,10,00,53,993.77
2015,12,10,00,54,993.66
2015,12,10,00,55,993.57
2015,12,10,00,56,993.43
2015,12,10,00,57,993.43
2015,12,10,00,58,993.36
2015,12,10,00,59,993.36
2015,12,10,01,00,993.36
2015,12,10,01,01,993.36
2015,12,10,01,02,993.30
2015,12,10,01,03,993.22
2015,12,10,01,04,993.13
2015,12,10,01,05,993.06
2015,12,10,01,06,992.99
2015,12,10,01,07,992.89
2015,12,10,01,08,992.86
2015,12,10,01,09,992.82
2015,12,10,01,10,992.82
2015,12,10,01,11,992.72
2015,12,10,01,12,992.64
2015,12,10,01,13,992.48
2015,12,10,01,14,992.52
2015,12,10,01,15,992.48
2015,12,10,01,16,992.42
2015,12,10,01,17,992.35
2015,12,10,01,18,992.28
2015,12,10,01,19,992.18
2015,12,10,01,20,992.17
2015,12,10,01,21,992.08
2015,12,10,01,22,991.98
2015,12,10,01,23,991.91
2015,12,10,01,24,991.87
2015,12,10,01,25,991.90
2015,12,10,01,26,991.77
2015,12,10,01,27,991.70
2015,12,10,01,28,991.70
2015,12,10,01,29,991.64
2015,12,10,01,30,991.57
2015,12,10,01,31,991.47
2015,12,10,01,32,991.47
2015,12,10,01,33,991.43
2015,12,10,01,34,991.40
2015,12,10,01,35,991.33
2015,12,10,01,36,991.23
2015,12,10,01,37,991.20
2015,12,10,01,38,991.13
2015,12,10,01,39,991.09
2015,12,10,01,40,991.09
2015,12,10,01,41,990.99
2015,12,10,01,42,990.89
2015,12,10,01,43,990.79
2015,12,10,01,44,990.68
2015,12,10,01,45,990.59
2015,12,10,01,46,990.54
2015,12,10,01,47,990.35
2015,12,10,01,48,990.28
2015,12,10,01,49,990.28
2015,12,10,01,50,990.21
2015,12,10,01,51,990.21
2015,12,10,01,52,990.21
2015,12,10,01,53,990.18
2015,12,10,01,54,990.18
2015,12,10,01,55,990.15
2015,12,10,01,56,990.18
2015,12,10,01,57,990.11
2015,12,10,01,58,990.15
2015,12,10,01,59,990.18
2015,12,10,02,00,990.11
2015,12,10,02,01,990.15
2015,12,10,02,02,990.08
2015,12,10,02,03,990.11
2015,12,10,02,04,990.04
2015,12,10,02,05,989.98
2015,12,10,02,06,989.91
2015,12,10,02,07,989.88
2015,12,10,02,08,989.88
2015,12,10,02,09,989.81
2015,12,10,02,10,989.81
2015,12,10,02,11,989.77
2015,12,10,02,12,989.81
2015,12,10,02,13,989.71
2015,12,10,02,14,989.67
2015,12,10,02,15,989.60
2015,12,10,02,16,989.64
2015,12,10,02,17,989.64
2015,12,10,02,18,989.54
2015,12,10,02,19,989.47
2015,12,10,02,20,989.40
2015,12,10,02,21,989.30
2015,12,10,02,22,989.10
2015,12,10,02,23,989.03
2015,12,10,02,24,989.03
2015,12,10,02,25,989.03
2015,12,10,02,26,989.00
2015,12,10,02,27,988.93
2015,12,10,02,28,988.93
2015,12,10,02,29,988.93
2015,12,10,02,30,988.86
2015,12,10,02,31,988.79
2015,12,10,02,32,988.76
2015,12,10,02,33,988.72
2015,12,10,02,34,988.69
2015,12,10,02,35,988.66
2015,12,10,02,36,988.59
2015,12,10,02,37,988.59
2015,12,10,02,38,988.59
2015,12,10,02,39,988.55
2015,12,10,02,40,988.51
2015,12,10,02,41,988.35
2015,12,10,02,42,988.35
2015,12,10,02,43,988.28
2015,12,10,02,44,988.28
2015,12,10,02,45,988.18
2015,12,10,02,46,988.25
2015,12,10,02,47,988.22
2015,12,10,02,48,988.15
2015,12,10,02,49,988.15
2015,12,10,02,50,988.15
2015,12,10,02,51,988.22
2015,12,10,02,52,988.11
2015,12,10,02,53,988.10
2015,12,10,02,54,988.01
2015,12,10,02,55,987.95
2015,12,10,02,56,987.88
2015,12,10,02,57,987.81
2015,12,10,02,58,987.78
2015,12,10,02,59,987.74
2015,12,10,03,00,987.67
2015,12,10,03,01,987.64
2015,12,10,03,02,987.54
2015,12,10,03,03,987.54
2015,12,10,03,04,987.51
2015,12,10,03,05,987.54
2015,12,10,03,06,987.44
2015,12,10,03,07,987.40
2015,12,10,03,08,987.40
2015,12,10,03,09,987.37
2015,12,10,03,10,987.37
2015,12,10,03,11,987.34
2015,12,10,03,12,987.34
2015,12,10,03,13,987.23
2015,12,10,03,14,987.23
2015,12,10,03,15,987.17
2015,12,10,03,16,987.10
2015,12,10,03,17,987.03
2015,12,10,03,18,987.03
2015,12,10,03,19,986.93
2015,12,10,03,20,987.00
2015,12,10,03,21,986.93
2015,12,10,03,22,986.93
2015,12,10,03,23,986.96
2015,12,10,03,24,987.13
2015,12,10,03,25,987.03
2015,12,10,03,26,987.03
2015,12,10,03,27,987.06
2015,12,10,03,28,987.10
2015,12,10,03,29,987.13
2015,12,10,03,30,987.06
2015,12,10,03,31,987.10
2015,12,10,03,32,987.06
2015,12,10,03,33,987.13
2015,12,10,03,34,987.13
2015,12,10,03,35,986.85
2015,12,10,03,36,986.73
2015,12,10,03,37,986.79
2015,12,10,03,38,986.76
2015,12,10,03,39,986.73
2015,12,10,03,40,986.69
2015,12,10,03,41,986.69
2015,12,10,03,42,986.73
2015,12,10,03,43,986.73
2015,12,10,03,44,986.73
2015,12,10,03,45,986.73
2015,12,10,03,46,986.73
2015,12,10,03,47,986.59
2015,12,10,03,48,986.62
2015,12,10,03,49,986.69
2015,12,10,03,50,986.62
2015,12,10,03,51,986.35
2015,12,10,03,52,986.69
2015,12,10,03,53,986.69
2015,12,10,03,54,986.59
2015,12,10,03,55,986.02
2015,12,10,03,56,986.42
2015,12,10,03,57,986.32
2015,12,10,03,58,986.32
2015,12,10,03,59,986.25
2015,12,10,04,00,986.29
2015,12,10,04,01,986.32
2015,12,10,04,02,986.35
2015,12,10,04,03,986.42
2015,12,10,04,04,986.52
2015,12,10,04,05,986.39
2015,12,10,04,06,986.46
2015,12,10,04,07,986.24
2015,12,10,04,08,986.02
2015,12,10,04,09,985.97
2015,12,10,04,10,985.88
2015,12,10,04,11,985.88
2015,12,10,04,12,985.97
2015,12,10,04,13,985.88
2015,12,10,04,14,985.85
2015,12,10,04,15,985.64
2015,12,10,04,16,985.81
2015,12,10,04,17,985.81
2015,12,10,04,18,985.80
2015,12,10,04,19,985.68
2015,12,10,04,20,985.78
2015,12,10,04,21,985.54
2015,12,10,04,22,985.57
2015,12,10,04,23,985.38
2015,12,10,04,24,985.51
2015,12,10,04,25,985.54
2015,12,10,04,26,985.44
2015,12,10,04,27,985.74
2015,12,10,04,28,985.51
2015,12,10,04,29,985.54
2015,12,10,04,30,985.68
2015,12,10,04,31,985.61
2015,12,10,04,32,985.77
2015,12,10,04,33,985.61
2015,12,10,04,34,985.71
2015,12,10,04,35,985.78
2015,12,10,04,36,985.74
2015,12,10,04,37,985.74
2015,12,10,04,38,985.68
2015,12,10,04,39,985.68
2015,12,10,04,40,985.74
2015,12,10,04,41,985.71
2015,12,10,04,42,985.74
2015,12,10,04,43,985.78
2015,12,10,04,44,985.78
2015,12,10,04,45,985.81
2015,12,10,04,46,985.88
2015,12,10,04,47,985.91
2015,12,10,04,48,986.02
2015,12,10,04,49,985.91
2015,12,10,04,50,985.98
2015,12,10,04,51,986.02
2015,12,10,04,52,986.08
2015,12,10,04,53,986.08
2015,12,10,04,54,986.02
2015,12,10,04,55,985.91
2015,12,10,04,56,985.85
2015,12,10,04,57,985.81
2015,12,10,04,58,985.82
2015,12,10,04,59,986.02
2015,12,10,05,00,985.91
2015,12,10,05,01,985.85
2015,12,10,05,02,985.85
2015,12,10,05,03,985.78
2015,12,10,05,04,985.71
2015,12,10,05,05,985.71
2015,12,10,05,06,985.68
2015,12,10,05,07,985.61
2015,12,10,05,08,985.64
2015,12,10,05,09,985.64
2015,12,10,05,10,985.57
2015,12,10,05,11,985.57
2015,12,10,05,12,985.50
2015,12,10,05,13,985.34
2015,12,10,05,14,985.41
2015,12,10,05,15,985.30
2015,12,10,05,16,985.30
2015,12,10,05,17,985.30
2015,12,10,05,18,985.24
2015,12,10,05,19,985.20
2015,12,10,05,20,985.20
2015,12,10,05,21,985.17
2015,12,10,05,22,985.13
2015,12,10,05,23,985.10
2015,12,10,05,24,985.17
2015,12,10,05,25,985.13
2015,12,10,05,26,985.13
2015,12,10,05,27,985.10
2015,12,10,05,28,985.07
2015,12,10,05,29,985.00
2015,12,10,05,30,984.97
2015,12,10,05,31,985.07
2015,12,10,05,32,985.07
2015,12,10,05,33,985.03
2015,12,10,05,34,985.03
2015,12,10,05,35,984.97
2015,12,10,05,36,984.97
2015,12,10,05,37,984.83
2015,12,10,05,38,984.86
2015,12,10,05,39,984.83
2015,12,10,05,40,984.76
2015,12,10,05,41,984.56
2015,12,10,05,42,984.63
2015,12,10,05,43,984.69
2015,12,10,05,44,984.59
2015,12,10,05,45,984.56
2015,12,10,05,46,984.66
2015,12,10,05,47,984.59
2015,12,10,05,48,984.53
2015,12,10,05,49,984.59
2015,12,10,05,50,984.59
2015,12,10,05,51,984.59
2015,12,10,05,52,984.66
2015,12,10,05,53,984.59
2015,12,10,05,54,984.59
2015,12,10,05,55,984.56
2015,12,10,05,56,984.49
2015,12,10,05,57,984.53
2015,12,10,05,58,984.53
2015,12,10,05,59,984.53
2015,12,10,06,00,984.46
2015,12,10,06,01,984.56
2015,12,10,06,02,984.53
2015,12,10,06,03,984.53
2015,12,10,06,04,984.49
2015,12,10,06,05,984.49
2015,12,10,06,06,984.56
2015,12,10,06,07,984.56
2015,12,10,06,08,984.41
2015,12,10,06,09,984.32
2015,12,10,06,10,984.32
2015,12,10,06,11,984.32
2015,12,10,06,12,984.29
2015,12,10,06,13,984.36
2015,12,10,06,14,984.42
2015,12,10,06,15,984.49
2015,12,10,06,16,984.53
2015,12,10,06,17,984.53
2015,12,10,06,18,984.62
2015,12,10,06,19,984.46
2015,12,10,06,20,984.42
2015,12,10,06,21,984.41
2015,12,10,06,22,984.25
2015,12,10,06,23,984.35
2015,12,10,06,24,984.22
2015,12,10,06,25,984.22
2015,12,10,06,26,984.25
2015,12,10,06,27,984.32
2015,12,10,06,28,984.29
2015,12,10,06,29,984.22
2015,12,10,06,30,984.29
2015,12,10,06,31,984.35
2015,12,10,06,32,984.18
2015,12,10,06,33,984.08
2015,12,10,06,34,984.08
2015,12,10,06,35,984.18
2015,12,10,06,36,984.07
2015,12,10,06,37,983.91
2015,12,10,06,38,983.78
2015,12,10,06,39,983.78
2015,12,10,06,40,983.92
2015,12,10,06,41,983.98
2015,12,10,06,42,983.81
2015,12,10,06,43,983.81
2015,12,10,06,44,983.78
2015,12,10,06,45,983.68
2015,12,10,06,46,983.68
2015,12,10,06,47,983.64
2015,12,10,06,48,983.58
2015,12,10,06,49,983.64
2015,12,10,06,50,983.58
2015,12,10,06,51,983.51
2015,12,10,06,52,983.58
2015,12,10,06,53,983.41
2015,12,10,06,54,983.44
2015,12,10,06,55,983.44
2015,12,10,06,56,983.42
2015,12,10,06,57,983.15
2015,12,10,06,58,983.31
2015,12,10,06,59,983.24
2015,12,10,07,00,983.27
2015,12,10,07,01,983.07
2015,12,10,07,02,983.17
2015,12,10,07,03,983.14
2015,12,10,07,04,983.07
2015,12,10,07,05,983.10
2015,12,10,07,06,983.00
2015,12,10,07,07,982.97
2015,12,10,07,08,982.93
2015,12,10,07,09,982.93
2015,12,10,07,10,982.97
2015,12,10,07,11,982.97
2015,12,10,07,12,983.00
2015,12,10,07,13,983.04
2015,12,10,07,14,983.00
2015,12,10,07,15,982.97
2015,12,10,07,16,983.07
2015,12,10,07,17,983.04
2015,12,10,07,18,982.87
2015,12,10,07,19,982.80
2015,12,10,07,20,982.73
2015,12,10,07,21,982.56
2015,12,10,07,22,982.73
2015,12,10,07,23,982.59
2015,12,10,07,24,982.72
2015,12,10,07,25,982.56
2015,12,10,07,26,982.59
2015,12,10,07,27,982.53
2015,12,10,07,28,982.43
2015,12,10,07,29,982.42
2015,12,10,07,30,982.34
2015,12,10,07,31,982.65
2015,12,10,07,32,982.49
2015,12,10,07,33,982.48
2015,12,10,07,34,982.36
2015,12,10,07,35,982.39
2015,12,10,07,36,982.43
2015,12,10,07,37,982.26
2015,12,10,07,38,982.32
2015,12,10,07,39,982.22
2015,12,10,07,40,982.15
2015,12,10,07,41,982.09
2015,12,10,07,42,982.05
2015,12,10,07,43,982.12
2015,12,10,07,44,982.12
2015,12,10,07,45,982.09
2015,12,10,07,46,981.95
2015,12,10,07,47,981.95
2015,12,10,07,48,981.92
2015,12,10,07,49,981.85
2015,12,10,07,50,981.85
2015,12,10,07,51,981.75
2015,12,10,07,52,981.78
2015,12,10,07,53,981.82
2015,12,10,07,54,981.75
2015,12,10,07,55,981.61
2015,12,10,07,56,981.61
2015,12,10,07,57,981.55
2015,12,10,07,58,981.48
2015,12,10,07,59,981.48
2015,12,10,08,00,981.48
2015,12,10,08,01,981.44
2015,12,10,08,02,981.61
2015,12,10,08,03,981.38
2015,12,10,08,04,981.41
2015,12,10,08,05,981.41
2015,12,10,08,06,981.41
2015,12,10,08,07,981.41
2015,12,10,08,08,981.34
2015,12,10,08,09,981.44
2015,12,10,08,10,981.34
2015,12,10,08,11,981.34
2015,12,10,08,12,981.21
2015,12,10,08,13,981.31
2015,12,10,08,14,981.10
2015,12,10,08,15,981.00
2015,12,10,08,16,980.97
2015,12,10,08,17,981.00
2015,12,10,08,18,980.87
2015,12,10,08,19,980.94
2015,12,10,08,20,980.90
2015,12,10,08,21,980.94
2015,12,10,08,22,980.73
2015,12,10,08,23,980.73
2015,12,10,08,24,980.56
2015,12,10,08,25,980.83
2015,12,10,08,26,980.70
2015,12,10,08,27,980.70
2015,12,10,08,28,980.70
2015,12,10,08,29,980.66
2015,12,10,08,30,980.63
2015,12,10,08,31,980.66
2015,12,10,08,32,980.77
2015,12,10,08,33,980.73
2015,12,10,08,34,980.74
2015,12,10,08,35,980.87
2015,12,10,08,36,980.83
2015,12,10,08,37,980.80
2015,12,10,08,38,980.77
2015,12,10,08,39,980.60
2015,12,10,08,40,980.66
2015,12,10,08,41,980.63
2015,12,10,08,42,980.56
2015,12,10,08,43,980.60
2015,12,10,08,44,980.53
2015,12,10,08,45,980.50
2015,12,10,08,46,980.50
2015,12,10,08,47,980.53
2015,12,10,08,48,980.56
2015,12,10,08,49,980.56
2015,12,10,08,50,980.40
2015,12,10,08,51,980.55
2015,12,10,08,52,980.40
2015,12,10,08,53,980.53
2015,12,10,08,54,980.43
2015,12,10,08,55,980.43
2015,12,10,08,56,980.46
2015,12,10,08,57,980.43
2015,12,10,08,58,980.46
2015,12,10,08,59,980.39
2015,12,10,09,00,980.43
2015,12,10,09,01,980.36
2015,12,10,09,02,980.43
2015,12,10,09,03,980.43
2015,12,10,09,04,980.39
2015,12,10,09,05,980.33
2015,12,10,09,06,980.36
2015,12,10,09,07,980.29
2015,12,10,09,08,980.29
2015,12,10,09,09,980.43
2015,12,10,09,10,980.39
2015,12,10,09,11,980.39
2015,12,10,09,12,980.39
2015,12,10,09,13,980.36
2015,12,10,09,14,980.33
2015,12,10,09,15,980.36
2015,12,10,09,16,980.43
2015,12,10,09,17,980.43
2015,12,10,09,18,980.53
2015,12,10,09,19,980.39
2015,12,10,09,20,980.46
2015,12,10,09,21,980.50
2015,12,10,09,22,980.50
2015,12,10,09,23,980.50
2015,12,10,09,24,980.43
2015,12,10,09,25,980.50
2015,12,10,09,26,980.46
2015,12,10,09,27,980.56
2015,12,10,09,28,980.53
2015,12,10,09,29,980.50
2015,12,10,09,30,980.53
2015,12,10,09,31,980.63
2015,12,10,09,32,980.56
2015,12,10,09,33,980.50
2015,12,10,09,34,980.46
2015,12,10,09,35,980.50
2015,12,10,09,36,980.46
2015,12,10,09,37,980.39
2015,12,10,09,38,980.36
2015,12,10,09,39,980.36
2015,12,10,09,40,980.36
2015,12,10,09,41,980.36
2015,12,10,09,42,980.39
2015,12,10,09,43,980.39
2015,12,10,09,44,980.46
2015,12,10,09,45,980.33
2015,12,10,09,46,980.36
2015,12,10,09,47,980.33
2015,12,10,09,48,980.29
2015,12,10,09,49,980.22
2015,12,10,09,50,980.19
2015,12,10,09,51,980.16
2015,12,10,09,52,980.12
2015,12,10,09,53,979.99
2015,12,10,09,54,980.06
2015,12,10,09,55,980.06
2015,12,10,09,56,979.95
2015,12,10,09,57,979.95
2015,12,10,09,58,979.85
2015,12,10,09,59,979.95
2015,12,10,10,00,979.89
2015,12,10,10,01,979.78
2015,12,10,10,02,979.85
2015,12,10,10,03,979.82
2015,12,10,10,04,979.75
2015,12,10,10,05,979.68
2015,12,10,10,06,979.78
2015,12,10,10,07,979.68
2015,12,10,10,08,979.65
2015,12,10,10,09,979.82
2015,12,10,10,10,979.85
2015,12,10,10,11,979.76
2015,12,10,10,12,979.84
2015,12,10,10,13,979.76
2015,12,10,10,14,979.89
2015,12,10,10,15,979.82
2015,12,10,10,16,979.89
2015,12,10,10,17,979.92
2015,12,10,10,18,979.95
2015,12,10,10,19,979.99
2015,12,10,10,20,979.99
2015,12,10,10,21,980.02
2015,12,10,10,22,979.95
2015,12,10,10,23,979.89
2015,12,10,10,24,979.95
2015,12,10,10,25,979.99
2015,12,10,10,26,979.99
2015,12,10,10,27,979.99
2015,12,10,10,28,980.06
2015,12,10,10,29,979.99
2015,12,10,10,30,979.95
2015,12,10,10,31,979.95
2015,12,10,10,32,979.99
2015,12,10,10,33,979.99
2015,12,10,10,34,980.02
2015,12,10,10,35,979.99
2015,12,10,10,36,979.92
2015,12,10,10,37,979.89
2015,12,10,10,38,979.89
2015,12,10,10,39,979.85
2015,12,10,10,40,979.85
2015,12,10,10,41,979.78
2015,12,10,10,42,979.85
2015,12,10,10,43,979.89
2015,12,10,10,44,979.99
2015,12,10,10,45,979.92
2015,12,10,10,46,979.95
2015,12,10,10,47,979.89
2015,12,10,10,48,980.02
2015,12,10,10,49,980.02
2015,12,10,10,50,980.06
2015,12,10,10,51,980.09
2015,12,10,10,52,980.09
2015,12,10,10,53,980.09
2015,12,10,10,54,980.09
2015,12,10,10,55,980.06
2015,12,10,10,56,980.02
2015,12,10,10,57,979.95
2015,12,10,10,58,980.08
2015,12,10,10,59,979.89
2015,12,10,11,00,979.95
2015,12,10,11,01,979.92
2015,12,10,11,02,979.89
2015,12,10,11,03,979.82
2015,12,10,11,04,979.78
2015,12,10,11,05,979.79
2015,12,10,11,06,979.89
2015,12,10,11,07,979.85
2015,12,10,11,08,979.95
2015,12,10,11,09,979.92
2015,12,10,11,10,979.89
2015,12,10,11,11,979.78
2015,12,10,11,12,979.82
2015,12,10,11,13,979.85
2015,12,10,11,14,979.85
2015,12,10,11,15,979.85
2015,12,10,11,16,979.82
2015,12,10,11,17,979.85
2015,12,10,11,18,979.82
2015,12,10,11,19,979.82
2015,12,10,11,20,979.78
2015,12,10,11,21,979.82
2015,12,10,11,22,979.82
2015,12,10,11,23,979.85
2015,12,10,11,24,979.89
2015,12,10,11,25,979.92
2015,12,10,11,26,979.89
2015,12,10,11,27,979.99
2015,12,10,11,28,979.95
2015,12,10,11,29,979.99
2015,12,10,11,30,980.09
2015,12,10,11,31,979.99
2015,12,10,11,32,980.09
2015,12,10,11,33,980.09
2015,12,10,11,34,980.06
2015,12,10,11,35,980.02
2015,12,10,11,36,980.09
2015,12,10,11,37,980.06
2015,12,10,11,38,980.02
2015,12,10,11,39,980.06
2015,12,10,11,40,980.09
2015,12,10,11,41,980.12
2015,12,10,11,42,980.16
2015,12,10,11,43,980.16
2015,12,10,11,44,980.12
2015,12,10,11,45,980.12
2015,12,10,11,46,980.16
2015,12,10,11,47,980.22
2015,12,10,11,48,980.16
2015,12,10,11,49,980.36
2015,12,10,11,50,980.39
2015,12,10,11,51,980.46
2015,12,10,11,52,980.43
2015,12,10,11,53,980.33
2015,12,10,11,54,980.26
2015,12,10,11,55,980.39
2015,12,10,11,56,980.36
2015,12,10,11,57,980.29
2015,12,10,11,58,980.50
2015,12,10,11,59,980.56
2015,12,10,12,00,980.53
2015,12,10,12,01,980.39
2015,12,10,12,02,980.50
2015,12,10,12,03,980.36
2015,12,10,12,04,980.29
2015,12,10,12,05,980.12
2015,12,10,12,06,980.06
2015,12,10,12,07,980.06
2015,12,10,12,08,980.16
2015,12,10,12,09,980.20
2015,12,10,12,10,980.29
2015,12,10,12,11,980.36
2015,12,10,12,12,980.29
2015,12,10,12,13,980.33
2015,12,10,12,14,980.36
2015,12,10,12,15,980.19
2015,12,10,12,16,980.22
2015,12,10,12,17,980.19
2015,12,10,12,18,980.22
2015,12,10,12,19,980.33
2015,12,10,12,20,980.29
2015,12,10,12,21,980.36
2015,12,10,12,22,980.39
2015,12,10,12,23,980.46
2015,12,10,12,24,980.56
2015,12,10,12,25,980.70
2015,12,10,12,26,980.66
2015,12,10,12,27,980.66
2015,12,10,12,28,980.70
2015,12,10,12,29,980.63
2015,12,10,12,30,980.60
2015,12,10,12,31,980.38
2015,12,10,12,32,980.25
2015,12,10,12,33,980.12
2015,12,10,12,34,980.06
2015,12,10,12,35,980.02
2015,12,10,12,36,979.95
2015,12,10,12,37,979.85
2015,12,10,12,38,979.79
2015,12,10,12,39,979.92
2015,12,10,12,40,979.95
2015,12,10,12,41,980.02
2015,12,10,12,42,980.16
2015,12,10,12,43,980.16
2015,12,10,12,44,980.26
2015,12,10,12,45,980.33
2015,12,10,12,46,980.60
2015,12,10,12,47,980.70
2015,12,10,12,48,980.83
2015,12,10,12,49,980.80
2015,12,10,12,50,980.97
2015,12,10,12,51,981.04
2015,12,10,12,52,981.07
2015,12,10,12,53,981.17
2015,12,10,12,54,981.07
2015,12,10,12,55,981.14
2015,12,10,12,56,981.14
2015,12,10,12,57,981.14
2015,12,10,12,58,981.34
2015,12,10,12,59,981.21
2015,12,10,13,00,981.24
2015,12,10,13,01,981.17
2015,12,10,13,02,981.21
2015,12,10,13,03,981.27
2015,12,10,13,04,981.21
2015,12,10,13,05,981.27
2015,12,10,13,06,981.55
2015,12,10,13,07,981.61
2015,12,10,13,08,981.68
2015,12,10,13,09,981.75
2015,12,10,13,10,981.71
2015,12,10,13,11,981.65
2015,12,10,13,12,981.71
2015,12,10,13,13,981.82
2015,12,10,13,14,981.88
2015,12,10,13,15,981.85
2015,12,10,13,16,981.85
2015,12,10,13,17,981.88
2015,12,10,13,18,981.82
2015,12,10,13,19,981.88
2015,12,10,13,20,981.88
2015,12,10,13,21,981.92
2015,12,10,13,22,981.85
2015,12,10,13,23,981.68
2015,12,10,13,24,981.61
2015,12,10,13,25,981.55
2015,12,10,13,26,981.48
2015,12,10,13,27,981.48
2015,12,10,13,28,981.56
2015,12,10,13,29,981.68
2015,12,10,13,30,981.75
2015,12,10,13,31,981.85
2015,12,10,13,32,981.92
2015,12,10,13,33,982.02
2015,12,10,13,34,982.05
2015,12,10,13,35,982.12
2015,12,10,13,36,982.15
2015,12,10,13,37,982.19
2015,12,10,13,38,982.22
2015,12,10,13,39,982.05
2015,12,10,13,40,982.16
2015,12,10,13,41,982.40
2015,12,10,13,42,982.53
2015,12,10,13,43,982.63
2015,12,10,13,44,982.36
2015,12,10,13,45,982.26
2015,12,10,13,46,982.26
2015,12,10,13,47,982.29
2015,12,10,13,48,982.36
2015,12,10,13,49,982.46
2015,12,10,13,50,982.76
2015,12,10,13,51,982.73
2015,12,10,13,52,982.80
2015,12,10,13,53,982.90
2015,12,10,13,54,982.84
2015,12,10,13,55,983.04
2015,12,10,13,56,983.17
2015,12,10,13,57,982.90
2015,12,10,13,58,983.04
2015,12,10,13,59,983.14
2015,12,10,14,00,983.24
2015,12,10,14,01,983.37
2015,12,10,14,02,983.48
2015,12,10,14,03,983.54
2015,12,10,14,04,983.37
2015,12,10,14,05,983.17
2015,12,10,14,06,983.19
2015,12,10,14,07,983.07
2015,12,10,14,08,983.07
2015,12,10,14,09,983.17
2015,12,10,14,10,983.30
2015,12,10,14,11,983.14
2015,12,10,14,12,983.04
2015,12,10,14,13,983.00
2015,12,10,14,14,983.00
2015,12,10,14,15,983.01
2015,12,10,14,16,983.10
2015,12,10,14,17,983.27
2015,12,10,14,18,983.51
2015,12,10,14,19,983.44
2015,12,10,14,20,983.78
2015,12,10,14,21,983.61
2015,12,10,14,22,983.58
2015,12,10,14,23,983.78
2015,12,10,14,24,983.95
2015,12,10,14,25,983.91
2015,12,10,14,26,983.78
2015,12,10,14,27,983.71
2015,12,10,14,28,983.71
2015,12,10,14,29,983.71
2015,12,10,14,30,983.75
2015,12,10,14,31,983.85
2015,12,10,14,32,983.92
2015,12,10,14,33,984.12
2015,12,10,14,34,984.12
2015,12,10,14,35,984.12
2015,12,10,14,36,984.20
2015,12,10,14,37,984.29
2015,12,10,14,38,984.32
2015,12,10,14,39,984.46
2015,12,10,14,40,984.39
2015,12,10,14,41,984.39
2015,12,10,14,42,984.63
2015,12,10,14,43,984.73
2015,12,10,14,44,984.80
2015,12,10,14,45,984.90
2015,12,10,14,46,984.86
2015,12,10,14,47,984.97
2015,12,10,14,48,985.07
2015,12,10,14,49,985.13
2015,12,10,14,50,985.07
2015,12,10,14,51,984.93
2015,12,10,14,52,984.93
2015,12,10,14,53,985.10
2015,12,10,14,54,984.97
2015,12,10,14,55,985.00
2015,12,10,14,56,985.07
2015,12,10,14,57,984.93
2015,12,10,14,58,984.87
2015,12,10,14,59,985.00
2015,12,10,15,00,984.94
2015,12,10,15,01,985.10
2015,12,10,15,02,985.34
2015,12,10,15,03,985.41
2015,12,10,15,04,985.42
2015,12,10,15,05,985.54
2015,12,10,15,06,985.47
2015,12,10,15,07,985.47
2015,12,10,15,08,985.37
2015,12,10,15,09,985.29
2015,12,10,15,10,985.20
2015,12,10,15,11,985.30
2015,12,10,15,12,985.33
2015,12,10,15,13,985.20
2015,12,10,15,14,985.03
2015,12,10,15,15,985.30
2015,12,10,15,16,985.27
2015,12,10,15,17,985.37
2015,12,10,15,18,985.43
2015,12,10,15,19,985.31
2015,12,10,15,20,985.54
2015,12,10,15,21,985.51
2015,12,10,15,22,985.47
2015,12,10,15,23,985.64
2015,12,10,15,24,985.61
2015,12,10,15,25,985.61
2015,12,10,15,26,985.60
2015,12,10,15,27,985.51
2015,12,10,15,28,985.78
2015,12,10,15,29,985.78
2015,12,10,15,30,985.74
2015,12,10,15,31,985.71
2015,12,10,15,32,985.61
2015,12,10,15,33,985.65
2015,12,10,15,34,985.78
2015,12,10,15,35,985.73
2015,12,10,15,36,986.05
2015,12,10,15,37,985.88
2015,12,10,15,38,986.25
2015,12,10,15,39,986.22
2015,12,10,15,40,986.25
2015,12,10,15,41,986.29
2015,12,10,15,42,986.25
2015,12,10,15,43,986.18
2015,12,10,15,44,986.35
2015,12,10,15,45,986.29
2015,12,10,15,46,986.40
2015,12,10,15,47,986.52
2015,12,10,15,48,986.66
2015,12,10,15,49,986.73
2015,12,10,15,50,986.83
2015,12,10,15,51,986.86
2015,12,10,15,52,986.90
2015,12,10,15,53,986.93
2015,12,10,15,54,987.01
2015,12,10,15,55,987.10
2015,12,10,15,56,987.17
2015,12,10,15,57,987.16
2015,12,10,15,58,987.06
2015,12,10,15,59,987.10
2015,12,10,16,00,987.17
2015,12,10,16,01,987.23
2015,12,10,16,02,987.21
2015,12,10,16,03,987.30
2015,12,10,16,04,987.34
2015,12,10,16,05,987.44
2015,12,10,16,06,987.44
2015,12,10,16,07,987.54
2015,12,10,16,08,987.57
2015,12,10,16,09,987.57
2015,12,10,16,10,987.51
2015,12,10,16,11,987.61
2015,12,10,16,12,987.52
2015,12,10,16,13,987.64
2015,12,10,16,14,987.71
2015,12,10,16,15,987.78
2015,12,10,16,16,987.88
2015,12,10,16,17,987.95
2015,12,10,16,18,987.98
2015,12,10,16,19,987.95
2015,12,10,16,20,987.98
2015,12,10,16,21,988.05
2015,12,10,16,22,988.05
2015,12,10,16,23,987.98
2015,12,10,16,24,988.05
2015,12,10,16,25,988.09
2015,12,10,16,26,988.28
2015,12,10,16,27,988.36
2015,12,10,16,28,988.59
2015,12,10,16,29,988.76
2015,12,10,16,30,988.69
2015,12,10,16,31,988.69
2015,12,10,16,32,988.62
2015,12,10,16,33,988.28
2015,12,10,16,34,988.28
2015,12,10,16,35,988.32
2015,12,10,16,36,988.18